Simultaneous Nadir Overpasses (SNOs) Predictions

Prediction of SNOs between AQUA and METOP-C Satellite Orbit:

Table of predicted SNOs for the next 14.0 days since TLE Epoch: 9/28/2024
Index Date (AQUA) Time (AQUA) Lat,Lon (AQUA) SZA (AQUA ) Date (METOP-C) Time (METOP-C) Lat,Lon (METOP-C) SZA (METOP-C ) Distance(km) Time Diff (sec)
1 09/30/2024 12:48:57 75.70, -12.49 78.74 09/30/2024 12:47:50 75.70, -12.48 78.74 0.57 67
2 09/30/2024 13:38:18 -75.76, 154.99 101.19 09/30/2024 13:38:30 -75.76, 155.04 101.19 1.35 12
3 10/03/2024 03:19:11 75.71, 129.95 79.77 10/03/2024 03:18:07 75.73, 130.06 79.79 3.48 64
4 10/03/2024 04:08:32 -75.77, -62.55 100.17 10/03/2024 04:08:48 -75.75, -62.56 100.19 2.68 16
5 10/05/2024 17:49:22 75.71, -87.54 80.78 10/05/2024 17:48:25 75.70, -87.61 80.76 2.59 57
6 10/05/2024 18:38:43 -75.77, 79.96 99.16 10/05/2024 18:39:05 -75.77, 79.94 99.16 0.73 22
7 10/08/2024 08:19:31 75.75, 54.88 81.81 10/08/2024 08:18:41 75.74, 54.96 81.80 2.39 50
8 10/08/2024 09:08:52 -75.80,-137.61 98.14 10/08/2024 09:09:22 -75.77,-137.62 98.16 2.98 30
9 10/10/2024 22:49:36 75.76,-162.64 82.81 10/10/2024 22:48:56 75.77,-162.51 82.82 3.57 40
10 10/10/2024 23:38:57 -75.81, 4.88 97.14 10/10/2024 23:39:37 -75.80, 4.92 97.14 1.21 40



Historial Predications of SNOs between AQUA and METOP-C
